When you browse on this site, cookies collect data to enhance your experience and personalize the content and advertising you see.
Visit our Privacy Policy to learn more. By continuing to use the site, you agree to this use of cookies and data.
  • In United Kingdom
  • List of Countries
  • For 7 days
  • Water Temperature
  • Satellite Maps
  • Weather Map
  • Weather Widgets
  • user-avatar
    Login

    Hourly Weather Vitebsk

    Today, 24 April, Wednesday

    Time Temperature Precipitation Wind Pressure Humidity
    00:00 +11°C° 0 mm 0 mps 756 mmHg 46%
    01:00 +10°C° 0 mm 0 mps 756 mmHg 48%
    02:00 +10°C° 0 mm 0 mps 757 mmHg 50%
    03:00 +9°C° 0 mm 0 mps 757 mmHg 51%
    04:00 +9°C° 0 mm 0 mps 757 mmHg 52%
    05:00 +9°C° 0 mm 0 mps 757 mmHg 54%
    06:00 +11°C° 0 mm 0 mps 757 mmHg 50%
    07:00 +13°C° 0 mm 0 mps 757 mmHg 47%
    08:00 +15°C° 0 mm 0 mps 757 mmHg 44%
    09:00 +19°C° 0 mm 1 mps 757 mmHg 40%
    10:00 +20°C° 0 mm 1 mps 757 mmHg 37%
    11:00 +22°C° 0 mm 1 mps 757 mmHg 34%
    12:00 +21°C° 0 mm 2 mps 757 mmHg 33%
    13:00 +21°C° 0 mm 2 mps 757 mmHg 33%
    14:00 +23°C° 0 mm 2 mps 756 mmHg 32%
    15:00 +21°C° 0 mm 2 mps 756 mmHg 35%
    16:00 +21°C° 0 mm 2 mps 756 mmHg 37%
    17:00 +21°C° 0 mm 2 mps 756 mmHg 40%
    18:00 +19°C° 0 mm 2 mps 755 mmHg 44%
    19:00 +18°C° 0 mm 1 mps 755 mmHg 49%
    20:00 +15°C° 0 mm 1 mps 755 mmHg 54%
    21:00 +14°C° 0 mm 1 mps 755 mmHg 55%
    22:00 +14°C° 0 mm 1 mps 755 mmHg 57%
    23:00 +13°C° 0 mm 1 mps 755 mmHg 58%

    Tomorrow, 25 April, Thursday

    Time Temperature Precipitation Wind Pressure Humidity
    00:00 +13°C° 0 mm 1 mps 755 mmHg 59%
    01:00 +12°C° 0 mm 1 mps 755 mmHg 61%
    02:00 +12°C° 0 mm 1 mps 755 mmHg 62%
    03:00 +11°C° 0 mm 1 mps 755 mmHg 64%
    04:00 +11°C° 0 mm 1 mps 755 mmHg 65%
    05:00 +11°C° 0 mm 1 mps 755 mmHg 66%
    06:00 +12°C° 0 mm 1 mps 755 mmHg 62%
    07:00 +14°C° 0 mm 1 mps 755 mmHg 57%
    08:00 +16°C° 0 mm 1 mps 755 mmHg 52%
    09:00 +18°C° 0 mm 2 mps 755 mmHg 47%
    10:00 +19°C° 0 mm 3 mps 755 mmHg 41%
    11:00 +21°C° 0 mm 3 mps 755 mmHg 36%
    12:00 +21°C° 0 mm 3 mps 755 mmHg 35%
    13:00 +21°C° 0 mm 3 mps 754 mmHg 35%
    14:00 +21°C° 0 mm 4 mps 754 mmHg 34%
    15:00 +21°C° 0 mm 3 mps 754 mmHg 36%
    16:00 +21°C° 0 mm 3 mps 753 mmHg 38%
    17:00 +21°C° 0 mm 2 mps 753 mmHg 40%
    18:00 +19°C° 0 mm 2 mps 753 mmHg 45%
    19:00 +17°C° 0 mm 2 mps 753 mmHg 50%
    20:00 +15°C° 0 mm 2 mps 752 mmHg 55%
    21:00 +14°C° 0 mm 2 mps 752 mmHg 57%
    22:00 +14°C° 0 mm 2 mps 752 mmHg 59%
    23:00 +13°C° 0 mm 2 mps 752 mmHg 61%

    Day after tomorrow, 26 April, Friday

    Time Temperature Precipitation Wind Pressure Humidity
    00:00 +12°C° 0 mm 2 mps 752 mmHg 62%
    01:00 +12°C° 0 mm 2 mps 752 mmHg 64%
    02:00 +10°C° 0 mm 2 mps 752 mmHg 65%
    03:00 +10°C° 0 mm 2 mps 752 mmHg 66%
    04:00 +10°C° 0 mm 2 mps 752 mmHg 67%
    05:00 +10°C° 0 mm 2 mps 752 mmHg 68%
    06:00 +12°C° 0 mm 2 mps 752 mmHg 64%
    07:00 +14°C° 0 mm 2 mps 752 mmHg 59%
    08:00 +16°C° 0 mm 2 mps 751 mmHg 55%
    09:00 +17°C° 0 mm 3 mps 751 mmHg 51%
    10:00 +19°C° 0 mm 4 mps 751 mmHg 46%
    11:00 +20°C° 0 mm 4 mps 751 mmHg 41%
    12:00 +21°C° 0 mm 4 mps 750 mmHg 41%
    13:00 +21°C° 0 mm 4 mps 750 mmHg 40%
    14:00 +21°C° 0 mm 4 mps 750 mmHg 40%
    15:00 +21°C° 0 mm 4 mps 749 mmHg 41%
    16:00 +21°C° 0 mm 3 mps 749 mmHg 43%
    17:00 +21°C° 0 mm 3 mps 748 mmHg 44%
    18:00 +19°C° 0 mm 3 mps 748 mmHg 52%
    19:00 +17°C° 0 mm 3 mps 748 mmHg 59%
    20:00 +14°C° 0 mm 3 mps 748 mmHg 67%
    21:00 +14°C° 0 mm 3 mps 747 mmHg 68%
    22:00 +13°C° 0 mm 3 mps 747 mmHg 69%
    23:00 +13°C° 0 mm 3 mps 747 mmHg 71%

    27 April, Saturday

    Time Temperature Precipitation Wind Pressure Humidity
    00:00 +12°C° 0 mm 3 mps 747 mmHg 71%
    01:00 +11°C° 0 mm 3 mps 746 mmHg 71%
    02:00 +11°C° 0 mm 3 mps 746 mmHg 71%
    03:00 +10°C° 0 mm 2 mps 746 mmHg 71%
    04:00 +10°C° 0 mm 2 mps 746 mmHg 71%
    05:00 +10°C° 0 mm 2 mps 745 mmHg 71%
    06:00 +11°C° 0 mm 3 mps 745 mmHg 70%
    07:00 +12°C° 0 mm 3 mps 745 mmHg 68%
    08:00 +13°C° 0 mm 3 mps 745 mmHg 66%
    09:00 +13°C° 0.3 mm 3 mps 745 mmHg 70%
    10:00 +13°C° 0.3 mm 3 mps 744 mmHg 73%
    11:00 +14°C° 0.3 mm 3 mps 744 mmHg 76%
    12:00 +14°C° 0.2 mm 4 mps 744 mmHg 75%
    13:00 +15°C° 0.2 mm 4 mps 744 mmHg 73%
    14:00 +17°C° 0.2 mm 4 mps 743 mmHg 72%
    15:00 +18°C° 0 mm 4 mps 743 mmHg 71%
    16:00 +18°C° 0 mm 3 mps 743 mmHg 71%
    17:00 +18°C° 0 mm 3 mps 743 mmHg 70%
    18:00 +17°C° 0.7 mm 3 mps 743 mmHg 78%
    19:00 +14°C° 0.7 mm 3 mps 743 mmHg 85%
    20:00 +13°C° 0.7 mm 3 mps 743 mmHg 93%
    21:00 +12°C° 0.1 mm 3 mps 743 mmHg 93%
    22:00 +13°C° 0.1 mm 2 mps 743 mmHg 94%
    23:00 +12°C° 0.1 mm 2 mps 743 mmHg 95%

    28 April, Sunday

    Time Temperature Precipitation Wind Pressure Humidity
    00:00 +12°C° 0 mm 2 mps 743 mmHg 95%
    01:00 +12°C° 0 mm 2 mps 743 mmHg 95%
    02:00 +10°C° 0 mm 2 mps 743 mmHg 95%
    03:00 +10°C° 0 mm 3 mps 743 mmHg 95%
    04:00 +10°C° 0 mm 3 mps 744 mmHg 94%
    05:00 +10°C° 0 mm 3 mps 744 mmHg 94%
    06:00 +12°C° 0 mm 3 mps 744 mmHg 89%
    07:00 +13°C° 0 mm 3 mps 744 mmHg 83%
    08:00 +15°C° 0 mm 4 mps 745 mmHg 77%
    09:00 +17°C° 0 mm 4 mps 745 mmHg 71%
    10:00 +19°C° 0 mm 5 mps 746 mmHg 65%
    11:00 +20°C° 0 mm 5 mps 746 mmHg 58%
    12:00 +20°C° 0 mm 5 mps 746 mmHg 55%
    13:00 +21°C° 0 mm 5 mps 746 mmHg 51%
    14:00 +21°C° 0 mm 5 mps 746 mmHg 48%
    15:00 +21°C° 0 mm 5 mps 747 mmHg 49%
    16:00 +20°C° 0 mm 5 mps 747 mmHg 50%
    17:00 +19°C° 0 mm 5 mps 747 mmHg 52%
    18:00 +16°C° 0 mm 5 mps 748 mmHg 55%
    19:00 +15°C° 0 mm 5 mps 748 mmHg 59%
    20:00 +13°C° 0 mm 4 mps 748 mmHg 62%
    21:00 +12°C° 0 mm 4 mps 749 mmHg 62%
    22:00 +11°C° 0 mm 4 mps 749 mmHg 61%
    23:00 +10°C° 0 mm 4 mps 750 mmHg 60%

    29 April, Monday

    Time Temperature Precipitation Wind Pressure Humidity
    00:00 +8°C° 0 mm 4 mps 750 mmHg 60%
    01:00 +7°C° 0 mm 4 mps 750 mmHg 60%
    02:00 +6°C° 0 mm 4 mps 751 mmHg 59%
    03:00 +5°C° 0 mm 4 mps 751 mmHg 61%
    04:00 +5°C° 0 mm 4 mps 751 mmHg 63%
    05:00 +4°C° 0 mm 4 mps 751 mmHg 64%
    06:00 +5°C° 0 mm 4 mps 751 mmHg 62%
    07:00 +7°C° 0 mm 4 mps 752 mmHg 60%
    08:00 +8°C° 0 mm 4 mps 752 mmHg 57%
    09:00 +10°C° 0 mm 4 mps 752 mmHg 52%
    10:00 +12°C° 0 mm 5 mps 752 mmHg 47%
    11:00 +13°C° 0 mm 5 mps 752 mmHg 42%
    12:00 +14°C° 0 mm 5 mps 752 mmHg 41%
    13:00 +14°C° 0 mm 4 mps 752 mmHg 40%
    14:00 +15°C° 0 mm 4 mps 751 mmHg 38%
    15:00 +14°C° 0 mm 4 mps 751 mmHg 40%
    16:00 +14°C° 0 mm 4 mps 751 mmHg 41%
    17:00 +14°C° 0 mm 4 mps 751 mmHg 42%
    18:00 +12°C° 0 mm 3 mps 751 mmHg 48%
    19:00 +11°C° 0 mm 3 mps 751 mmHg 54%
    20:00 +9°C° 0 mm 2 mps 752 mmHg 61%
    21:00 +8°C° 0 mm 2 mps 752 mmHg 62%
    22:00 +7°C° 0 mm 2 mps 752 mmHg 64%
    23:00 +6°C° 0 mm 2 mps 752 mmHg 66%
    Show more